Location: Bismarck
(46.7731°N, 100.8200°W)
Time: 04:24:38
(UTC-05:00)

Amateur Radio Satellites - All Passes

Search period start: 29 August 2015 03:54
Search period end: 30 August 2015 03:54
Location: Bismarck, 46.7731°N, 100.8200°W

Satellite Date Start Highest point End Downlink Frequencies (MHz)
Time Altitude Azimuth
BEESAT 29 Aug 03:59:31 04:02:48 18° 271° (W) 04:05:56 436.000
AIST 2 29 Aug 04:06:28 04:09:06 16° 248° (WSW) 04:11:34 435.215
ITAMSAT 1 29 Aug 04:07:04 04:12:10 54° 100° (E) 04:17:15 435.822/435.867
RS-15 29 Aug 04:07:51 04:18:45 43° 249° (WSW) 04:29:44 29.354- 29.394
STARS 29 Aug 04:12:51 04:17:16 85° 77° (ENE) 04:21:44 437.465
MOZHAYETS 4 29 Aug 04:13:25 04:17:03 24° 65° (ENE) 04:20:46
KKS-1 29 Aug 04:23:36 04:27:54 46° 261° (W) 04:32:14 437.445
Cosmos 2499 29 Aug 04:46:01 04:53:13 34° 84° (E) 05:00:56 435.465 / 435.565
Oscar 19 29 Aug 04:55:45 04:59:27 19° 300° (WNW) 05:02:59 437.125/150
SO-50 29 Aug 04:59:40 05:03:45 25° 325° (NW) 05:07:51 436.795
Gurwin Techsat 1B 29 Aug 05:10:19 05:15:14 38° 293° (WNW) 05:20:05 435.225
O/OREOS (USA 219) 29 Aug 05:11:03 05:14:43 23° 50° (NE) 05:18:27 437.305
AO-7 29 Aug 05:19:06 05:27:00 46° 99° (E) 05:34:55 29.400- 29.500
HORYU 2 29 Aug 05:22:50 05:27:03 40° 98° (E) 05:31:15 437.375
GONETS M04 29 Aug 05:34:51 05:43:08 46° 290° (WNW) 05:51:25
PCSat 29 Aug 05:35:45 05:40:19 26° 320° (NW) 05:44:50 145.827
JAS-2 29 Aug 05:36:50 05:44:03 58° 292° (WNW) 05:50:25 435.910
ITAMSAT 1 29 Aug 05:47:15 05:51:22 24° 298° (WNW) 05:55:22 435.822/435.867
MOZHAYETS 4 29 Aug 05:49:39 05:54:04 43° 262° (W) 05:58:29
STARS 29 Aug 05:53:15 05:54:26 11° 274° (W) 05:55:22 437.465
CUBESAT XI-V 29 Aug 05:58:19 06:02:02 26° 66° (ENE) 06:05:51 437.345
STRAND 1 29 Aug 06:11:56 06:14:20 14° 56° (ENE) 06:16:56 437.568
Cosmos 2499 29 Aug 06:37:34 06:45:56 62° 285° (WNW) 06:54:45 435.465 / 435.565
SO-50 29 Aug 06:44:45 06:46:03 11° 349° (N) 06:47:17 436.795
O/OREOS (USA 219) 29 Aug 06:49:59 06:54:27 50° 250° (WSW) 06:58:53 437.305
HORYU 2 29 Aug 06:59:51 07:03:30 24° 295° (WNW) 07:07:04 437.375
Cubesat XI-IV 29 Aug 07:02:26 07:06:12 20° 90° (E) 07:10:07 437.490
YUBILEINY 29 Aug 07:03:09 07:06:20 12° 45° (NE) 07:10:03 435.215
VERMONT LUNAR 29 Aug 07:05:45 07:08:00 20° 168° (SSE) 07:10:17 437.305
AO-7 29 Aug 07:12:02 07:19:54 48° 300° (WNW) 07:27:40 29.400- 29.500
JAS-2 29 Aug 07:23:48 07:27:34 15° 313° (NW) 07:30:53 435.910
CUBESAT XI-V 29 Aug 07:34:59 07:39:19 39° 263° (W) 07:43:39 437.345
GONETS M04 29 Aug 07:41:12 07:43:06 11° 318° (NW) 07:44:26
PRISM 29 Aug 07:44:18 07:48:19 55° 72° (ENE) 07:52:20 437.425
CUTE-I 29 Aug 07:47:31 07:52:39 47° 99° (E) 07:57:47 437.470
STRAND 1 29 Aug 07:47:43 07:52:50 83° 74° (ENE) 07:57:58 437.568
BRITE-PL 29 Aug 07:58:55 08:01:49 15° 86° (E) 08:05:02 437.365/2234.400
SO-50 29 Aug 08:27:14 08:28:48 11° 13° (NNE) 08:30:27 436.795
PHONESAT 2.4 29 Aug 08:28:09 08:30:17 16° 160° (SSE) 08:32:27 2401.200-2431.200
Cosmos 2499 29 Aug 08:36:16 08:41:27 16° 311° (NW) 08:46:17 435.465 / 435.565
VERMONT LUNAR 29 Aug 08:41:30 08:43:58 23° 185° (S) 08:46:26 437.305
Cubesat XI-IV 29 Aug 08:41:32 08:46:48 63° 289° (WNW) 08:52:03 437.490
GOMX 1 29 Aug 08:42:35 08:46:41 22° 89° (E) 08:50:58 467.674
YUBILEINY 29 Aug 08:57:26 09:06:01 52° 72° (ENE) 09:14:34 435.215
AO-7 29 Aug 09:06:47 09:10:49 14° 322° (NW) 09:14:33 29.400- 29.500
DOVE 4 29 Aug 09:10:49 09:15:03 24° 90° (E) 09:19:24 437.250
AIST 1 29 Aug 09:18:42 09:22:47 48° 94° (E) 09:26:55
PRISM 29 Aug 09:21:42 09:24:08 15° 270° (W) 09:26:24 437.425
CUTE-I 29 Aug 09:28:03 09:32:32 28° 297° (WNW) 09:36:56 437.470
STRAND 1 29 Aug 09:30:05 09:32:48 14° 274° (W) 09:35:15 437.568
CUTE 1.7 + AOD 2 29 Aug 09:35:07 09:38:30 23° 92° (E) 09:41:55 437.475
BRITE-PL 29 Aug 09:35:37 09:41:01 88° 289° (WNW) 09:46:42 437.365/2234.400
HO-68 29 Aug 09:42:19 09:48:52 37° 95° (E) 09:55:30 435.675
Cosmos 2491 29 Aug 09:47:36 09:55:37 45° 88° (E) 10:03:46 435.465 / 435.565
CANX-2 29 Aug 09:48:18 09:52:12 35° 96° (E) 09:56:05 2200.000
TIGRISAT 29 Aug 09:49:09 09:51:09 13° 58° (ENE) 09:53:21 435.000
AUBIESAT-1 29 Aug 09:56:09 09:59:40 21° 58° (ENE) 10:03:14 437.475
M-CUBED/EXP-1 PRIME 29 Aug 09:58:07 10:01:59 25° 59° (ENE) 10:05:53 437.505
ANTELSAT 29 Aug 10:03:44 10:06:48 18° 61° (ENE) 10:10:01 437.575/2403.000
PHONESAT 2.4 29 Aug 10:04:38 10:07:35 27° 176° (S) 10:10:33 2401.200-2431.200
Oscar 11 29 Aug 10:06:10 10:07:58 13° 87° (E) 10:09:58 145.826/435.025
SO-50 29 Aug 10:06:45 10:11:02 28° 37° (NE) 10:15:16 436.795
SEEDS 29 Aug 10:15:00 10:19:05 48° 99° (E) 10:23:09 437.485
Cosmos 2504 29 Aug 10:16:31 10:23:14 25° 59° (ENE) 10:29:59 435.465 / 435.565
CINEMA 3 29 Aug 10:17:46 10:22:35 43° 97° (E) 10:27:19 145.822/145.860
VERMONT LUNAR 29 Aug 10:18:26 10:19:51 13° 201° (SSW) 10:21:14 437.305
GOMX 1 29 Aug 10:19:52 10:25:10 60° 288° (WNW) 10:30:35 467.674
Cubesat XI-IV 29 Aug 10:24:23 10:25:59 11° 307° (NW) 10:27:20 437.490
CUBEBUG 2 29 Aug 10:28:23 10:32:18 26° 92° (E) 10:36:13 437.445
UWE-3 29 Aug 10:41:32 10:45:27 27° 93° (E) 10:49:20 435.000/436.395/437.385
ZACube-1 29 Aug 10:41:38 10:44:59 21° 90° (E) 10:48:24 437.345
COMPASS 1 29 Aug 10:41:49 10:46:00 74° 102° (ESE) 10:50:08 437.405
ISS 29 Aug 10:43:39 10:46:09 21° 139° (SE) 10:48:41 145.825
DOVE 4 29 Aug 10:47:57 10:53:05 52° 289° (WNW) 10:58:13 437.250
FUNcube-1 29 Aug 10:48:15 10:51:50 23° 91° (E) 10:55:25 145.935
UNISAT 6 29 Aug 10:52:58 10:57:28 48° 71° (ENE) 11:02:01 437.425
PCSat 29 Aug 10:53:15 10:57:30 23° 37° (NE) 11:01:49 145.827
YUBILEINY 29 Aug 10:54:37 11:02:42 41° 274° (W) 11:10:38 435.215
AAUSAT CUBESAT 2 29 Aug 10:54:39 10:58:49 86° 103° (ESE) 11:02:57 437.432
AIST 1 29 Aug 10:57:52 11:00:47 17° 294° (WNW) 11:03:35
POLYITAN 1 29 Aug 11:01:04 11:04:21 22° 65° (ENE) 11:07:45 437.675
POPSAT HIP 1 29 Aug 11:04:45 11:08:08 24° 65° (ENE) 11:11:35 437.405
DUCHIFAT 1 29 Aug 11:07:50 11:11:13 24° 66° (ENE) 11:14:43 145.980
CUTE 1.7 + AOD 2 29 Aug 11:10:37 11:14:32 36° 290° (WNW) 11:18:22 437.475
BRITE-PL 29 Aug 11:15:39 11:18:56 16° 300° (WNW) 11:22:06 437.365/2234.400
CUSAT 1 29 Aug 11:18:56 11:25:38 38° 68° (ENE) 11:33:12 437.405
QB50P2 29 Aug 11:20:24 11:24:14 34° 69° (ENE) 11:28:09 145.880/145.840
TIGRISAT 29 Aug 11:22:32 11:27:13 87° 76° (ENE) 11:31:59 435.000
NANOSAT C BR1 29 Aug 11:23:44 11:27:34 35° 69° (ENE) 11:31:29 145.865
CANX-2 29 Aug 11:24:30 11:28:00 25° 293° (WNW) 11:31:23 2200.000
DANDE 29 Aug 11:25:44 11:31:47 31° 66° (ENE) 11:38:55 436.750
BUGSAT 1 29 Aug 11:28:19 11:31:35 24° 66° (ENE) 11:34:58 437.445
DX 1 29 Aug 11:29:01 11:31:19 14° 88° (E) 11:33:48 434.975-435.025
AUBIESAT-1 29 Aug 11:29:18 11:34:00 59° 254° (WSW) 11:38:39 437.475
HO-68 29 Aug 11:29:55 11:36:50 50° 295° (WNW) 11:43:41 435.675
M-CUBED/EXP-1 PRIME 29 Aug 11:31:50 11:36:30 49° 256° (WSW) 11:41:07 437.505
QB50P1 29 Aug 11:35:54 11:39:58 47° 71° (ENE) 11:44:06 145.935-145.965
ANTELSAT 29 Aug 11:38:28 11:43:07 65° 260° (W) 11:47:50 437.575/2403.000
DELFI C3 29 Aug 11:39:20 11:43:22 78° 102° (ESE) 11:47:21 145.870
AISAT 29 Aug 11:39:45 11:41:37 13° 87° (E) 11:43:43 437.250
Oscar 11 29 Aug 11:40:24 11:44:44 71° 286° (WNW) 11:49:00 145.826/435.025
PHONESAT 2.4 29 Aug 11:42:14 11:44:59 22° 193° (SSW) 11:47:43 2401.200-2431.200
Cosmos 2491 29 Aug 11:44:14 11:52:34 46° 290° (WNW) 12:00:50 435.465 / 435.565
UKube-1 29 Aug 11:45:38 11:48:41 19° 91° (E) 11:51:51 .
SO-50 29 Aug 11:47:02 11:51:57 61° 238° (WSW) 11:56:43 436.795
HUMSAT D 29 Aug 11:50:06 11:54:08 39° 97° (E) 11:58:07 437.325/437.525
SEEDS 29 Aug 11:51:35 11:54:34 19° 296° (WNW) 11:57:25 437.485
CINEMA 3 29 Aug 11:55:18 11:59:34 28° 295° (WNW) 12:03:42 145.822/145.860
GOMX 1 29 Aug 12:00:54 12:02:23 11° 305° (NW) 12:03:36 467.674
CUBEBUG 2 29 Aug 12:04:40 12:09:07 40° 291° (WNW) 12:13:26 437.445
VELOX 1 29 Aug 12:07:34 12:11:05 23° 93° (E) 12:14:42 145.980
Cosmos 2504 29 Aug 12:08:03 12:16:42 83° 263° (W) 12:24:52 435.465 / 435.565
ZACube-1 29 Aug 12:17:15 12:21:38 46° 289° (WNW) 12:25:53 437.345
UWE-3 29 Aug 12:17:46 12:22:04 37° 291° (WNW) 12:26:13 435.000/436.395/437.385
ISS 29 Aug 12:19:02 12:22:17 73° 336° (NNW) 12:25:32 145.825
COMPASS 1 29 Aug 12:19:09 12:21:08 13° 299° (WNW) 12:22:56 437.405
FUNcube-1 29 Aug 12:24:02 12:28:20 41° 290° (WNW) 12:32:30 145.935
UNISAT 6 29 Aug 12:30:51 12:34:30 22° 269° (W) 12:38:06 437.425
AAUSAT CUBESAT 2 29 Aug 12:32:28 12:33:49 11° 300° (WNW) 12:34:58 437.432
POLYITAN 1 29 Aug 12:36:00 12:40:02 40° 262° (W) 12:44:07 437.675
PCSat 29 Aug 12:36:09 12:41:36 83° 241° (WSW) 12:47:02 145.827
50 SAT 29 Aug 12:38:19 12:42:09 56° 100° (E) 12:45:57 437.505
POPSAT HIP 1 29 Aug 12:39:50 12:43:49 37° 263° (W) 12:47:49 437.405
DUCHIFAT 1 29 Aug 12:42:56 12:46:52 36° 263° (W) 12:50:49 145.980
ESTCUBE 1 29 Aug 12:50:39 12:55:01 47° 99° (E) 12:59:22 437.505/2401.250
QB50P2 29 Aug 12:56:37 13:00:12 25° 267° (W) 13:03:45 145.880/145.840
Oscar 19 29 Aug 12:57:37 13:01:21 21° 61° (ENE) 13:05:14 437.125/150
NANOSAT C BR1 29 Aug 12:59:59 13:03:30 24° 267° (W) 13:06:58 145.865
CUSAT 1 29 Aug 13:01:13 13:08:27 57° 265° (W) 13:16:26 437.405
TIGRISAT 29 Aug 13:02:53 13:04:42 12° 275° (W) 13:06:16 435.000
BUGSAT 1 29 Aug 13:03:13 13:06:55 33° 264° (W) 13:10:40 437.445
DX 1 29 Aug 13:03:42 13:08:04 64° 287° (WNW) 13:12:24 434.975-435.025
DANDE 29 Aug 13:08:17 13:15:20 68° 263° (W) 13:23:37 436.750
TISAT 1 29 Aug 13:11:17 13:12:59 12° 87° (E) 13:14:54 437.305
QB50P1 29 Aug 13:13:06 13:16:07 18° 270° (W) 13:19:02 145.935-145.965
AISAT 29 Aug 13:14:18 13:18:48 75° 286° (WNW) 13:23:16 437.250
DELFI C3 29 Aug 13:16:25 13:17:53 12° 299° (WNW) 13:19:10 145.870
Gurwin Techsat 1B 29 Aug 13:18:38 13:20:22 12° 54° (NE) 13:22:21 435.225
HO-68 29 Aug 13:20:03 13:23:04 13° 316° (NW) 13:25:46 435.675
UKube-1 29 Aug 13:20:55 13:25:06 47° 290° (WNW) 13:29:16 .
CUBEBUG 1 29 Aug 13:23:36 13:28:03 85° 106° (ESE) 13:32:28 437.445
HUMSAT D 29 Aug 13:26:17 13:29:40 22° 295° (WNW) 13:32:55 437.325/437.525
SPROUT 29 Aug 13:30:16 13:34:13 33° 96° (E) 13:38:10 437.525
VELOX 1 29 Aug 13:43:36 13:47:48 40° 291° (WNW) 13:51:59 145.980
GONETS M04 29 Aug 13:44:26 13:51:32 27° 60° (ENE) 13:58:52
Cosmos 2491 29 Aug 13:50:22 13:52:29 11° 317° (NW) 13:54:03 435.465 / 435.565
ITAMSAT 1 29 Aug 13:50:52 13:54:11 18° 59° (ENE) 13:57:39 435.822/435.867
ISS 29 Aug 13:55:59 13:58:59 33° 356° (N) 14:02:00 145.825
Cosmos 2504 29 Aug 14:02:00 14:07:41 19° 284° (WNW) 14:12:49 435.465 / 435.565
JAS-2 29 Aug 14:06:59 14:12:46 24° 55° (NE) 14:18:48 435.910
50 SAT 29 Aug 14:14:04 14:16:16 14° 298° (WNW) 14:18:20 437.505
BEESAT 29 Aug 14:19:11 14:20:54 12° 86° (E) 14:22:53 436.000
PCSat 29 Aug 14:21:42 14:24:17 13° 256° (WSW) 14:26:34 145.827
ESTCUBE 1 29 Aug 14:28:10 14:31:37 21° 296° (WNW) 14:34:56 437.505/2401.250
AO-7 29 Aug 14:31:41 14:37:31 23° 47° (NE) 14:43:37 29.400- 29.500
Cosmos 2499 29 Aug 14:33:56 14:38:47 16° 49° (NE) 14:43:56 435.465 / 435.565
Oscar 19 29 Aug 14:35:10 14:40:17 63° 258° (WSW) 14:45:28 437.125/150
SWISSCUBE 29 Aug 14:43:12 14:46:54 23° 92° (E) 14:50:41 437.505
TISAT 1 29 Aug 14:45:02 14:49:19 71° 286° (WNW) 14:53:33 437.305
CUSAT 1 29 Aug 14:47:06 14:49:59 12° 281° (W) 14:52:22 437.405
AISAT 29 Aug 14:53:43 14:54:39 10° 303° (WNW) 14:55:21 437.250
DANDE 29 Aug 14:53:44 14:57:45 15° 277° (W) 15:01:35 436.750
Gurwin Techsat 1B 29 Aug 14:54:13 14:59:29 67° 72° (ENE) 15:04:47 435.225
CUBEBUG 1 29 Aug 15:01:48 15:03:49 13° 301° (WNW) 15:05:39 437.445
SPROUT 29 Aug 15:06:29 15:10:12 27° 293° (WNW) 15:13:50 437.525
ITUPSAT 1 29 Aug 15:19:49 15:24:22 44° 98° (E) 15:28:56 437.325
ITAMSAT 1 29 Aug 15:27:58 15:33:10 76° 257° (WSW) 15:38:22 435.822/435.867
ISS 29 Aug 15:32:39 15:35:49 46° 16° (NNE) 15:38:58 145.825
GONETS M04 29 Aug 15:40:41 15:49:29 78° 264° (W) 15:58:18
JAS-2 29 Aug 15:49:12 15:56:53 88° 75° (ENE) 16:04:50 435.910
BEESAT 29 Aug 15:54:42 15:59:29 85° 289° (WNW) 16:04:16 436.000
STARS 29 Aug 16:01:23 16:03:21 13° 87° (E) 16:05:32 437.465
BEESAT 3 29 Aug 16:02:07 16:04:57 19° 114° (ESE) 16:07:53 437.485
BEESAT 2 29 Aug 16:10:22 16:13:03 17° 113° (ESE) 16:15:52 435.950
KKS-1 29 Aug 16:11:54 16:15:44 27° 94° (E) 16:19:35 437.445
SWISSCUBE 29 Aug 16:20:27 16:25:01 46° 290° (WNW) 16:29:32 437.505
AO-7 29 Aug 16:20:53 16:29:13 78° 68° (ENE) 16:37:34 29.400- 29.500
HORYU 2 29 Aug 16:23:32 16:27:54 53° 72° (ENE) 16:32:20 437.375
RS-15 29 Aug 16:24:46 16:33:10 28° 104° (ESE) 16:42:12 29.354- 29.394
Cosmos 2499 29 Aug 16:25:31 16:34:15 63° 75° (ENE) 16:42:29 435.465 / 435.565
Gurwin Techsat 1B 29 Aug 16:36:19 16:40:02 18° 271° (W) 16:43:36 435.225
ITUPSAT 1 29 Aug 16:58:10 17:02:03 25° 296° (WNW) 17:05:50 437.325
ISS 29 Aug 17:09:07 17:12:13 42° 214° (SW) 17:15:18 145.825
ITAMSAT 1 29 Aug 17:12:57 17:13:42 10° 277° (W) 17:14:06 435.822/435.867
BEESAT 29 Aug 17:34:29 17:36:39 13° 303° (WNW) 17:38:39 436.000
CUTE-I 29 Aug 17:34:53 17:38:09 17° 58° (ENE) 17:41:36 437.470
STARS 29 Aug 17:35:55 17:40:23 73° 286° (WNW) 17:44:48 437.465
JAS-2 29 Aug 17:37:08 17:42:58 22° 276° (W) 17:48:38 435.910
BEESAT 3 29 Aug 17:38:33 17:42:33 53° 312° (NW) 17:46:34 437.485
GONETS M04 29 Aug 17:39:35 17:45:02 18° 284° (WNW) 17:50:01
MOZHAYETS 4 29 Aug 17:41:44 17:45:56 35° 96° (E) 17:50:07
BEESAT 2 29 Aug 17:46:40 17:50:43 57° 311° (NW) 17:54:48 435.950
KKS-1 29 Aug 17:48:19 17:52:26 35° 292° (WNW) 17:56:29 437.445
HORYU 2 29 Aug 18:01:45 18:04:54 18° 270° (W) 18:07:57 437.375
AIST 2 29 Aug 18:05:10 18:09:17 52° 121° (ESE) 18:13:26 435.215
AO-7 29 Aug 18:16:05 18:22:56 26° 269° (W) 18:29:33 29.400- 29.500
Cosmos 2499 29 Aug 18:19:23 18:26:55 33° 277° (W) 18:33:54 435.465 / 435.565
Cubesat XI-IV 29 Aug 18:26:56 18:31:55 43° 68° (ENE) 18:36:57 437.490
RS-15 29 Aug 18:33:17 18:44:17 87° 307° (NW) 18:55:50 29.354- 29.394
CUTE-I 29 Aug 19:12:19 19:17:39 82° 256° (WSW) 19:23:01 437.470
BRITE-PL 29 Aug 19:13:18 19:16:14 18° 61° (ENE) 19:19:27 437.365/2234.400
MOZHAYETS 4 29 Aug 19:19:09 19:23:03 28° 294° (WNW) 19:26:53
BEESAT 3 29 Aug 19:19:35 19:21:24 12° 333° (NNW) 19:23:07 437.485
AIST 1 29 Aug 19:23:24 19:26:16 18° 66° (ENE) 19:29:16
BEESAT 2 29 Aug 19:27:36 19:29:39 13° 332° (NNW) 19:31:36 435.950
O/OREOS (USA 219) 29 Aug 19:28:20 19:30:21 13° 99° (E) 19:32:36 437.305
CUBESAT XI-V 29 Aug 19:28:21 19:32:43 40° 97° (E) 19:37:07 437.345
AIST 2 29 Aug 19:44:33 19:48:07 25° 321° (NW) 19:51:39 435.215
GOMX 1 29 Aug 19:53:57 19:57:43 27° 65° (ENE) 20:01:46 467.674
Cosmos 2491 29 Aug 19:53:59 20:00:59 27° 60° (ENE) 20:08:13 435.465 / 435.565
STRAND 1 29 Aug 19:55:59 19:59:54 22° 91° (E) 20:03:55 437.568
Cubesat XI-IV 29 Aug 20:07:34 20:12:12 29° 266° (W) 20:16:46 437.490
HO-68 29 Aug 20:14:01 20:20:28 39° 61° (ENE) 20:27:02 435.675
AAUSAT CUBESAT 2 29 Aug 20:16:30 20:16:57 10° 59° (ENE) 20:17:37 437.432
DOVE 4 29 Aug 20:19:20 20:23:18 29° 66° (ENE) 20:27:33 437.250
CUTE 1.7 + AOD 2 29 Aug 20:30:43 20:34:13 25° 67° (ENE) 20:37:47 437.475
CANX-2 29 Aug 20:43:48 20:47:44 37° 70° (ENE) 20:51:44 2200.000
RS-15 29 Aug 20:48:08 20:58:26 39° 336° (NNW) 21:09:07 29.354- 29.394
BRITE-PL 29 Aug 20:50:03 20:54:20 57° 261° (W) 20:58:56 437.365/2234.400
CUTE-I 29 Aug 20:56:40 20:58:42 12° 276° (W) 21:00:24 437.470
PRISM 29 Aug 20:58:42 21:02:46 60° 102° (ESE) 21:06:49 437.425
AIST 1 29 Aug 21:00:05 21:04:16 49° 266° (W) 21:08:27
Oscar 11 29 Aug 21:03:42 21:06:15 16° 62° (ENE) 21:08:56 145.826/435.025
O/OREOS (USA 219) 29 Aug 21:04:40 21:09:12 75° 296° (WNW) 21:13:49 437.305
CUBESAT XI-V 29 Aug 21:06:10 21:09:59 25° 295° (WNW) 21:13:44 437.345
SEEDS 29 Aug 21:09:29 21:13:35 49° 72° (ENE) 21:17:43 437.485
CINEMA 3 29 Aug 21:21:57 21:26:29 52° 72° (ENE) 21:31:17 145.822/145.860
CUBEBUG 2 29 Aug 21:29:05 21:33:08 31° 67° (ENE) 21:37:19 437.445
GOMX 1 29 Aug 21:31:30 21:35:42 38° 265° (W) 21:40:11 467.674
STRAND 1 29 Aug 21:34:29 21:39:27 52° 290° (WNW) 21:44:23 437.568
COMPASS 1 29 Aug 21:35:20 21:39:32 73° 75° (ENE) 21:43:46 437.405
ZACube-1 29 Aug 21:40:10 21:43:48 24° 65° (ENE) 21:47:33 437.345
UWE-3 29 Aug 21:41:08 21:45:10 32° 67° (ENE) 21:49:20 435.000/436.395/437.385
FUNcube-1 29 Aug 21:46:30 21:50:17 27° 66° (ENE) 21:54:10 145.935
AAUSAT CUBESAT 2 29 Aug 21:47:41 21:51:54 84° 77° (ENE) 21:56:07 437.432
Cosmos 2491 29 Aug 21:50:14 21:58:59 79° 264° (W) 22:07:45 435.465 / 435.565
DOVE 4 29 Aug 21:56:44 22:00:58 36° 266° (W) 22:05:26 437.250
HO-68 29 Aug 22:01:09 22:08:05 50° 261° (W) 22:15:02 435.675
YUBILEINY 29 Aug 22:01:45 22:10:07 53° 90° (E) 22:18:37 435.215
CUTE 1.7 + AOD 2 29 Aug 22:06:02 22:10:00 35° 264° (W) 22:13:56 437.475
CANX-2 29 Aug 22:20:17 22:23:47 23° 268° (W) 22:27:13 2200.000
DX 1 29 Aug 22:27:17 22:30:18 19° 63° (ENE) 22:33:26 434.975-435.025
DELFI C3 29 Aug 22:28:44 22:32:47 69° 74° (ENE) 22:36:49 145.870
PRISM 29 Aug 22:35:21 22:37:47 15° 298° (WNW) 22:40:07 437.425
Oscar 11 29 Aug 22:37:39 22:41:59 64° 259° (W) 22:46:19 145.826/435.025
AISAT 29 Aug 22:40:02 22:42:53 18° 62° (ENE) 22:45:52 437.250
UKube-1 29 Aug 22:43:08 22:46:33 24° 65° (ENE) 22:50:05 .
HUMSAT D 29 Aug 22:44:13 22:48:16 41° 70° (ENE) 22:52:23 437.325/437.525
SEEDS 29 Aug 22:46:44 22:49:41 18° 270° (W) 22:52:30 437.485
O/OREOS (USA 219) 29 Aug 22:47:24 22:49:33 13° 318° (NW) 22:51:34 437.305
CUBEBUG 1 29 Aug 22:49:02 22:50:52 13° 60° (ENE) 22:52:53 437.445
Cosmos 2504 29 Aug 22:53:33 22:57:40 16° 74° (ENE) 23:02:23 435.465 / 435.565
CINEMA 3 29 Aug 23:00:32 23:04:04 20° 271° (W) 23:07:35 145.822/145.860
RS-15 29 Aug 23:04:50 23:14:49 33° 10° (N) 23:25:17 29.354- 29.394
CUBEBUG 2 29 Aug 23:05:31 23:09:46 34° 266° (W) 23:14:03 437.445
VELOX 1 29 Aug 23:07:49 23:11:37 30° 66° (ENE) 23:15:29 145.980
TIGRISAT 29 Aug 23:12:52 23:15:31 15° 87° (E) 23:18:18 435.000
COMPASS 1 29 Aug 23:14:06 23:15:47 12° 274° (W) 23:17:13 437.405
ZACube-1 29 Aug 23:15:37 23:19:56 42° 263° (W) 23:24:19 437.345
UWE-3 29 Aug 23:17:30 23:21:40 32° 266° (W) 23:25:51 435.000/436.395/437.385
FUNcube-1 29 Aug 23:22:14 23:26:27 37° 264° (W) 23:30:44 145.935
50 SAT 29 Aug 23:24:09 23:27:56 46° 72° (ENE) 23:31:46 437.505
ANTELSAT 29 Aug 23:28:17 23:31:53 22° 91° (E) 23:35:29 437.575/2403.000
Cosmos 2491 29 Aug 23:49:07 23:54:34 18° 284° (WNW) 23:59:35 435.465 / 435.565
ESTCUBE 1 29 Aug 23:52:52 23:57:18 62° 73° (ENE) 00:01:44 437.505/2401.250
YUBILEINY 29 Aug 23:59:06 00:07:18 40° 293° (WNW) 00:15:27 435.215
DX 1 30 Aug 00:02:00 00:06:13 51° 260° (W) 00:10:28 434.975-435.025
TISAT 1 30 Aug 00:06:12 00:08:29 15° 61° (ENE) 00:10:56 437.305
DELFI C3 30 Aug 00:06:50 00:08:22 12° 273° (W) 00:09:41 145.870
AISAT 30 Aug 00:14:42 00:19:03 58° 259° (W) 00:23:26 437.250
BEESAT 3 30 Aug 00:16:40 00:20:20 32° 43° (NE) 00:23:58 437.485
UKube-1 30 Aug 00:18:29 00:22:31 38° 262° (W) 00:26:34 .
POLYITAN 1 30 Aug 00:18:32 00:22:10 26° 94° (E) 00:25:52 437.675
UNISAT 6 30 Aug 00:18:36 00:23:15 70° 102° (ESE) 00:27:44 437.425
HUMSAT D 30 Aug 00:20:48 00:24:11 22° 268° (W) 00:27:30 437.325/437.525
POPSAT HIP 1 30 Aug 00:22:00 00:25:43 28° 94° (E) 00:29:28 437.405
CUBEBUG 1 30 Aug 00:22:20 00:26:39 82° 257° (WSW) 00:31:01 437.445
DUCHIFAT 1 30 Aug 00:24:32 00:28:16 28° 95° (E) 00:32:00 145.980
BEESAT 2 30 Aug 00:25:20 00:28:59 30° 42° (NE) 00:32:36 435.950
SPROUT 30 Aug 00:27:02 00:30:58 37° 69° (ENE) 00:34:59 437.525
CUSAT 1 30 Aug 00:31:19 00:33:58 18° 82° (E) 00:37:16 437.405
QB50P2 30 Aug 00:38:07 00:42:14 42° 98° (E) 00:46:20 145.880/145.840
Cosmos 2504 30 Aug 00:40:22 00:48:24 71° 95° (E) 00:56:58 435.465 / 435.565
NANOSAT C BR1 30 Aug 00:40:57 00:45:04 43° 98° (E) 00:49:10 145.865
AUBIESAT-1 30 Aug 00:42:09 00:46:15 71° 106° (ESE) 00:50:01 437.475
BUGSAT 1 30 Aug 00:42:10 00:45:50 28° 95° (E) 00:49:32 437.445
VELOX 1 30 Aug 00:44:11 00:48:08 31° 265° (W) 00:52:04 145.980
DANDE 30 Aug 00:44:17 00:45:40 12° 80° (E) 00:47:22 436.750
M-CUBED/EXP-1 PRIME 30 Aug 00:45:13 00:49:25 90° 89° (E) 00:53:14 437.505
AIST 2 30 Aug 00:46:28 00:49:11 17° 32° (NNE) 00:51:57 435.215
TIGRISAT 30 Aug 00:48:11 00:52:47 64° 288° (WNW) 00:57:15 435.000
QB50P1 30 Aug 00:53:33 00:57:50 60° 101° (E) 01:02:04 145.935-145.965
ITUPSAT 1 30 Aug 00:55:47 00:56:53 11° 56° (NE) 00:58:14 437.325
50 SAT 30 Aug 01:00:09 01:02:44 16° 270° (W) 01:05:13 437.505
ANTELSAT 30 Aug 01:04:29 01:08:53 43° 290° (WNW) 01:13:09 437.575/2403.000
RS-15 30 Aug 01:18:49 01:30:19 59° 41° (NE) 01:42:20 29.354- 29.394
BEESAT 30 Aug 01:27:43 01:31:12 21° 62° (ENE) 01:34:49 436.000
ESTCUBE 1 30 Aug 01:31:53 01:34:38 15° 271° (W) 01:37:14 437.505/2401.250
TISAT 1 30 Aug 01:39:36 01:43:47 66° 258° (WSW) 01:48:01 437.305
SWISSCUBE 30 Aug 01:52:20 01:56:40 36° 67° (ENE) 02:01:02 437.505
POLYITAN 1 30 Aug 01:54:12 01:58:07 33° 292° (WNW) 02:01:58 437.675
BEESAT 3 30 Aug 01:54:36 01:58:15 33° 242° (WSW) 02:01:49 437.485
UNISAT 6 30 Aug 01:56:37 01:59:30 16° 300° (WNW) 02:02:12 437.425
POPSAT HIP 1 30 Aug 01:57:45 02:01:36 31° 292° (WNW) 02:05:23 437.405
DUCHIFAT 1 30 Aug 02:00:15 02:04:03 30° 292° (WNW) 02:07:47 145.980
BEESAT 2 30 Aug 02:03:19 02:07:03 35° 242° (WSW) 02:10:43 435.950
SPROUT 30 Aug 02:03:40 02:07:11 23° 267° (W) 02:10:39 437.525
SO-50 30 Aug 02:04:37 02:08:23 24° 114° (ESE) 02:12:19 436.795
CUSAT 1 30 Aug 02:12:04 02:15:50 45° 290° (WNW) 02:20:51 437.405
QB50P2 30 Aug 02:14:32 02:17:53 22° 295° (WNW) 02:21:08 145.880/145.840
NANOSAT C BR1 30 Aug 02:17:20 02:20:38 21° 295° (WNW) 02:23:51 145.865
BUGSAT 1 30 Aug 02:17:31 02:21:17 31° 292° (WNW) 02:25:01 437.445
AUBIESAT-1 30 Aug 02:18:12 02:20:24 14° 307° (NW) 02:22:24 437.475
M-CUBED/EXP-1 PRIME 30 Aug 02:21:50 02:23:29 12° 309° (NW) 02:24:57 437.505
AIST 2 30 Aug 02:24:11 02:28:25 84° 53° (NE) 02:32:33 435.215
DANDE 30 Aug 02:24:30 02:27:53 50° 288° (WNW) 02:32:23 436.750
ITUPSAT 1 30 Aug 02:29:15 02:34:00 72° 74° (ENE) 02:38:48 437.325
QB50P1 30 Aug 02:30:31 02:33:17 16° 298° (WNW) 02:35:54 145.935-145.965
Cosmos 2504 30 Aug 02:34:26 02:41:32 30° 298° (WNW) 02:48:44 435.465 / 435.565
Oscar 19 30 Aug 02:43:52 02:48:42 37° 96° (E) 02:53:31 437.125/150
GONETS M04 30 Aug 02:50:46 02:57:22 26° 81° (E) 03:04:16
JAS-2 30 Aug 03:00:04 03:02:11 12° 76° (ENE) 03:04:43 435.910
STARS 30 Aug 03:00:46 03:03:41 18° 62° (ENE) 03:06:44 437.465
BEESAT 30 Aug 03:04:03 03:08:43 54° 260° (W) 03:13:25 436.000
Gurwin Techsat 1B 30 Aug 03:08:14 03:12:10 21° 90° (E) 03:16:14 435.225
KKS-1 30 Aug 03:12:41 03:16:44 35° 68° (ENE) 03:20:50 437.445
PCSat 30 Aug 03:20:29 03:25:41 51° 117° (ESE) 03:30:57 145.827
SWISSCUBE 30 Aug 03:30:25 03:34:35 29° 265° (W) 03:38:42 437.505
ITAMSAT 1 30 Aug 03:38:10 03:42:43 31° 95° (E) 03:47:18 435.822/435.867
SO-50 30 Aug 03:43:50 03:48:36 57° 312° (NW) 03:53:30 436.795
